EW9274 Weather Reports


Display with metric or nautical units.
time (UTC)temp
F
wind
direction
speed
MPH
gust
MPH
rain 1hr
in
rain 24hr
in
rain mn
in
humidity
%
barometer
mb
20260504141002 67 245 7.0 15.0 0.00 0.00 0.00 36 1001.1
20260504140502 67 204 5.0 13.0 0.00 0.00 0.00 37 1001.2
20260504130509 58 232 1.0 6.0 0.00 0.00 0.00 56 1001.9
20260504110502 45 223 1.0 2.0 0.00 0.00 0.00 80 1002.1
20260504100502 44 250 0.0 2.0 0.00 0.00 0.00 81 1002.2
20260504082003 46 232 0.0 2.0 0.00 0.00 0.00 82 1003.3
20260504081527 46 232 1.0 2.0 0.00 0.00 0.00 82 1003.4
20260504081003 46 232 0.0 2.0 0.00 0.00 0.00 81 1003.4
20260504080503 46 232 1.0 2.0 0.00 0.00 0.00 81 1003.3
20260504050506 50 250 1.0 2.0 0.00 0.00 0.00 76 1004.6
20260504045505 51 250 1.0 2.0 0.00 0.00 0.00 75 1004.7
20260504045009 51 250 0.0 2.0 0.00 0.00 0.00 74 1004.7
20260504044538 51 250 1.0 2.0 0.00 0.00 0.00 74 1004.7
20260504044005 51 250 1.0 2.0 0.00 0.00 0.00 75 1004.7
20260504043509 51 250 0.0 2.0 0.00 0.00 0.00 74 1004.7
20260504043016 51 250 0.0 2.0 0.00 0.00 0.00 74 1004.6
20260504042506 51 250 0.0 2.0 0.00 0.00 0.00 73 1004.7
20260504042010 52 250 0.0 2.0 0.00 0.00 0.00 73 1004.7
20260504041515 52 250 0.0 2.0 0.00 0.00 0.00 72 1004.7
20260504041006 52 250 0.0 2.0 0.00 0.00 0.00 71 1004.6
20260504040507 52 250 0.0 2.0 0.00 0.00 0.00 71 1004.6
20260504040017 52 250 0.0 2.0 0.00 0.00 0.00 72 1004.8
20260504035507 53 250 0.0 2.0 0.00 0.00 0.00 70 1004.7
20260504035011 53 250 0.0 2.0 0.00 0.00 0.00 70 1004.6
20260504034516 53 250 0.0 2.0 0.00 0.00 0.00 70 1004.7
20260504034007 53 250 0.0 2.0 0.00 0.00 0.00 70 1004.7
20260504033508 53 250 0.0 2.0 0.00 0.00 0.00 69 1004.8
20260504033022 54 250 0.0 2.0 0.00 0.00 0.00 68 1004.7
20260504032507 54 250 0.0 2.0 0.00 0.00 0.00 68 1004.7
20260504032015 54 250 0.0 2.0 0.00 0.00 0.00 68 1004.8
20260504031520 54 250 0.0 2.0 0.00 0.00 0.00 67 1004.8
20260504031006 55 250 0.0 2.0 0.00 0.00 0.00 66 1004.8
20260504030511 55 250 0.0 2.0 0.00 0.00 0.00 66 1004.8
20260504030036 55 250 0.0 2.0 0.00 0.00 0.00 65 1004.8
20260504025507 55 250 0.0 2.0 0.00 0.00 0.00 66 1004.8
20260504025010 56 250 0.0 2.0 0.00 0.00 0.00 64 1004.7
20260504024521 56 250 0.0 2.0 0.00 0.00 0.00 63 1004.7
20260504024010 56 250 0.0 2.0 0.00 0.00 0.00 63 1004.7
20260504023511 56 250 0.0 2.0 0.00 0.00 0.00 62 1004.7
20260504023028 56 250 0.0 2.0 0.00 0.00 0.00 62 1004.7
20260504022509 57 250 0.0 2.0 0.00 0.00 0.00 62 1004.7
20260504022013 57 250 0.0 2.0 0.00 0.00 0.00 63 1004.7
20260504021527 57 250 0.0 2.0 0.00 0.00 0.00 61 1004.7
20260504021006 57 250 0.0 1.0 0.00 0.00 0.00 60 1004.6
20260504020502 58 250 0.0 2.0 0.00 0.00 0.00 59 1004.6
20260504020006 58 250 0.0 2.0 0.00 0.00 0.00 58 1004.6
20260504015502 59 250 0.0 2.0 0.00 0.00 0.00 57 1004.6
20260504015004 59 250 0.0 2.0 0.00 0.00 0.00 57 1004.5
20260504014504 59 250 0.0 2.0 0.00 0.00 0.00 57 1004.4
20260504014003 60 250 0.0 2.0 0.00 0.00 0.00 55 1004.4
20260504013505 60 250 0.0 2.0 0.00 0.00 0.00 54 1004.5
20260504013004 61 250 0.0 2.0 0.00 0.00 0.00 53 1004.5
20260504012508 61 250 0.0 2.0 0.00 0.00 0.00 52 1004.6
20260504012004 62 250 0.0 2.0 0.00 0.00 0.00 51 1004.5
20260504011504 62 250 0.0 2.0 0.00 0.00 0.00 49 1004.5
20260504011005 63 250 0.0 2.0 0.00 0.00 0.00 47 1004.5
20260504010501 64 250 0.0 2.0 0.00 0.00 0.00 47 1004.5
20260504010004 64 250 0.0 4.0 0.00 0.00 0.00 46 1004.5
20260504005504 64 250 0.0 4.0 0.00 0.00 0.00 45 1004.5
20260504005003 65 205 0.0 2.0 0.00 0.00 0.00 44 1004.5
20260504004503 65 247 1.0 5.0 0.00 0.00 0.00 44 1004.5
20260504004004 65 248 1.0 6.0 0.00 0.00 0.00 43 1004.4
20260504003502 66 199 1.0 7.0 0.00 0.00 0.00 43 1004.2
20260504003004 66 259 3.0 7.0 0.00 0.00 0.00 43 1004.2
20260504002503 66 257 2.0 13.0 0.00 0.00 0.00 42 1004.1
20260504002003 66 244 4.0 13.0 0.00 0.00 0.00 41 1004.2
20260504001507 67 252 7.0 13.0 0.00 0.00 0.00 40 1004.2
20260504001005 67 244 4.0 13.0 0.00 0.00 0.00 41 1004.2
20260504000501 67 218 6.0 13.0 0.00 0.00 0.00 40 1004.2
20260504000016 67 200 4.0 15.0 0.00 0.00 0.00 40 1004.2
20260503235504 67 232 9.0 15.0 0.00 0.00 0.00 39 1004.2
20260503235004 68 252 2.0 14.0 0.00 0.00 0.00 40 1004.2
20260503234525 68 244 9.0 14.0 0.00 0.00 0.00 39 1004.2
20260503234005 68 36 9.0 17.0 0.00 0.00 0.00 39 1004.2
20260503233504 68 252 8.0 17.0 0.00 0.00 0.00 39 1004.2
20260503233012 68 242 9.0 19.0 0.00 0.00 0.00 39 1004.3
20260503232506 68 275 8.0 19.0 0.00 0.00 0.00 39 1004.3
20260503232002 68 198 9.0 18.0 0.00 0.00 0.00 39 1004.3
20260503231516 68 225 7.0 19.0 0.00 0.00 0.00 38 1004.3
20260503231006 68 329 8.0 19.0 0.00 0.00 0.00 38 1004.3
20260503230506 68 235 9.0 24.0 0.00 0.00 0.00 38 1004.3
20260503230012 68 253 7.0 24.0 0.00 0.00 0.00 38 1004.5
20260503225505 69 226 8.0 22.0 0.00 0.00 0.00 38 1004.4
20260503225003 68 236 2.0 22.0 0.00 0.00 0.00 39 1004.4
20260503224517 68 254 11.0 21.0 0.00 0.00 0.00 39 1004.5
20260503224002 68 259 11.0 21.0 0.00 0.00 0.00 39 1004.5
20260503223502 68 231 9.0 23.0 0.00 0.00 0.00 39 1004.6
20260503223016 68 360 12.0 23.0 0.00 0.00 0.00 39 1004.6
20260503222503 68 257 8.0 19.0 0.00 0.00 0.00 39 1004.6
20260503222004 68 211 8.0 20.0 0.00 0.00 0.00 39 1004.7
20260503221516 68 223 6.0 20.0 0.00 0.00 0.00 39 1004.8
20260503221010 68 306 7.0 17.0 0.00 0.00 0.00 39 1004.9
20260503220503 68 277 8.0 18.0 0.00 0.00 0.00 39 1004.9
20260503220037 68 76 4.0 18.0 0.00 0.00 0.00 40 1004.9
20260503215507 67 215 8.0 19.0 0.00 0.00 0.00 39 1004.9
20260503215002 67 36 7.0 25.0 0.00 0.00 0.00 39 1005.0
20260503214519 67 252 13.0 25.0 0.00 0.00 0.00 39 1004.9
20260503214003 67 218 11.0 25.0 0.00 0.00 0.00 38 1004.8
20260503213505 68 245 6.0 25.0 0.00 0.00 0.00 40 1005.0
20260503213024 67 259 12.0 25.0 0.00 0.00 0.00 38 1005.1
20260503212502 68 210 9.0 19.0 0.00 0.00 0.00 39 1005.1
20260503212006 67 267 10.0 22.0 0.00 0.00 0.00 39 1005.1
20260503211521 67 273 8.0 28.0 0.00 0.00 0.00 39 1005.0
20260503211003 67 234 10.0 28.0 0.00 0.00 0.00 39 1005.0
20260503210505 68 252 13.0 26.0 0.00 0.00 0.00 39 1005.1
20260503210020 67 192 5.0 26.0 0.00 0.00 0.00 40 1005.1
20260503205503 67 305 13.0 26.0 0.00 0.00 0.00 39 1005.3
20260503205008 67 271 11.0 22.0 0.00 0.00 0.00 38 1005.4
20260503204521 68 232 7.0 18.0 0.00 0.00 0.00 40 1005.5
20260503204003 67 245 5.0 18.0 0.00 0.00 0.00 43 1005.6
20260503203505 66 237 9.0 25.0 0.00 0.00 0.00 43 1005.7
20260503203029 66 193 8.0 25.0 0.00 0.00 0.00 43 1005.6
20260503202503 66 143 12.0 21.0 0.00 0.00 0.00 44 1005.8
20260503202009 66 302 5.0 21.0 0.00 0.00 0.00 45 1006.0
20260503201521 65 253 8.0 24.0 0.00 0.00 0.00 46 1006.1
20260503201011 64 166 13.0 25.0 0.00 0.00 0.00 45 1006.2
20260503200508 64 36 12.0 25.0 0.00 0.00 0.00 45 1006.6
20260503200024 64 233 8.0 27.0 0.00 0.00 0.00 44 1006.5
20260503195502 64 156 8.0 27.0 0.00 0.00 0.00 45 1006.7
20260503195008 64 180 10.0 29.0 0.00 0.00 0.00 44 1006.6
20260503194506 64 157 10.0 29.0 0.00 0.00 0.00 43 1006.7
20260503194005 65 247 12.0 28.0 0.00 0.00 0.00 42 1006.7
20260503193511 64 202 11.0 20.0 0.00 0.00 0.00 42 1006.9
20260503193008 64 292 8.0 28.0 0.00 0.00 0.00 41 1006.9
20260503192505 65 119 11.0 30.0 0.00 0.00 0.00 39 1007.0
20260503192009 65 244 14.0 30.0 0.00 0.00 0.00 39 1006.8
20260503191513 65 72 11.0 26.0 0.00 0.00 0.00 40 1006.8
20260503191009 65 218 12.0 25.0 0.00 0.00 0.00 40 1006.8
20260503190509 65 222 9.0 26.0 0.00 0.00 0.00 39 1006.9
20260503190005 65 203 10.0 26.0 0.00 0.00 0.00 39 1006.9
20260503185503 65 188 12.0 25.0 0.00 0.00 0.00 39 1007.0
20260503185006 65 255 12.0 22.0 0.00 0.00 0.00 39 1007.0
20260503184508 65 211 10.0 36.0 0.00 0.00 0.00 40 1007.1
20260503184007 65 117 7.0 36.0 0.00 0.00 0.00 40 1007.2
20260503183513 65 211 13.0 24.0 0.00 0.00 0.00 40 1007.1
20260503183010 65 209 8.0 22.0 0.00 0.00 0.00 41 1007.2
20260503182505 65 86 6.0 22.0 0.00 0.00 0.00 41 1007.3
20260503182010 64 227 8.0 18.0 0.00 0.00 0.00 43 1007.4
20260503181509 64 220 10.0 17.0 0.00 0.00 0.00 44 1007.5
20260503181006 63 234 8.0 16.0 0.00 0.00 0.00 45 1007.6
20260503180509 63 209 6.0 20.0 0.00 0.00 0.00 47 1007.6
20260503180026 62 164 11.0 20.0 0.00 0.00 0.00 45 1007.8
20260503175506 62 225 9.0 19.0 0.00 0.00 0.00 47 1007.8
20260503175013 62 225 6.0 22.0 0.00 0.00 0.00 47 1007.8
20260503174526 61 236 10.0 25.0 0.00 0.00 0.00 46 1007.9
20260503174008 61 196 6.0 25.0 0.00 0.00 0.00 48 1008.2
20260503173507 61 238 11.0 24.0 0.00 0.00 0.00 48 1008.3
20260503173017 60 99 11.0 24.0 0.00 0.00 0.00 48 1008.4
20260503172506 60 202 10.0 22.0 0.00 0.00 0.00 48 1008.4
20260503172011 61 198 4.0 14.0 0.00 0.00 0.00 48 1008.5
20260503171516 59 204 7.0 18.0 0.00 0.00 0.00 51 1008.8
20260503171010 58 193 9.0 18.0 0.00 0.00 0.00 52 1008.7
20260503170509 57 217 7.0 18.0 0.00 0.00 0.00 54 1008.8
20260503151004 57 274 4.0 26.0 0.00 0.00 0.00 52 1010.2
20260503150505 57 231 12.0 26.0 0.00 0.00 0.00 50 1010.2